{"data":{"norad_id":55762,"intl_designator":"2023-028X","name":"STARLINK-5603","alt_names":[],"object_type":"PAYLOAD","status":"ACTIVE","operator":null,"country":"US","launch_date":"2023-03-03","launch_site_code":"AFWTR","launch_vehicle":null,"mission":null,"orbit_class":"UNKNOWN","rcs_meters":null,"size_class":null,"mass_kg":null,"dimensions":null,"purposes":["comms"],"wikipedia_slug":null,"has_3d_model":false,"image_url":null,"decayed_at":null,"tle_current":{"epoch":"2026-09-20T22:00:47.904768Z","epoch_age_seconds":67072,"freshness":"FRESH","line1":"1 55762U 23028X   26263.91722112 -.00000112  00000+0 -15633-5 0  9992","line2":"2 55762  69.9976  92.3260 0002680 270.5166  89.5686 14.98330017195775","mean_motion":14.98330017,"eccentricity":0.000268,"inclination_deg":69.9976,"raan_deg":92.326,"arg_perigee_deg":270.5166,"mean_anomaly_deg":89.5686,"bstar":-1.5633e-6,"rev_number":19577,"period_min":96.106998035267,"perigee_km":570.19318669263,"apogee_km":573.918490054,"semimajor_km":6950.1928383733,"source":"CELESTRAK","updated_at":"2026-09-21T09:00:33.315450Z"}}}